Regional Weather Roundup
Issued by NWS

Home | Current Version | Previous Version | Text Only | Print | Product List | Glossary Off
Versions: 1 2 3 4 5 6 7 8 9 10 11 12 13 14 15 16 17 18 19 20 21 22 23 24 25 26 27 28 29 30 31 32 33 34 35 36 37 38 39 40 41 42 43 44 45 46 47 48 49 50

000
ASUS43 KLSX 100707
RWRMO

WEATHER SUMMARY FOR MISSOURI
NATIONAL WEATHER SERVICE SPRINGFIELD MO
100 AM CST SUN DEC 10 2017

NOTE: "FAIR" INDICATES FEW OR NO CLOUDS BELOW 12,000 FEET WITH NO
       SIGNIFICANT WEATHER AND/OR OBSTRUCTIONS TO VISIBILITY.
       CURRENT SKY AND/OR WEATHER CONDITIONS ARE NOT AVAILABLE FOR
       CHILLICOTHE AND FARMINGTON.

MOZ001>031-035>038-043-044-053-054-100800-
...NORTHERN AND WESTERN MISSOURI...

CITY           SKY/WX    TMP DP  RH WIND       PRES   REMARKS
KANSAS CTY INT CLOUDY    24  18  77 S8        30.12F WCI  15
KANSAS C DTWN  CLOUDY    30  20  66 CALM      30.14F
LEE`S SUMMIT   PTCLDY    28  19  69 SW7       30.14F WCI  21
ST JOSEPH      CLOUDY    22  19  89 S6        30.11F WCI  14
CHILLICOTHE      N/A     21  14  74 S6        30.14F WCI  13
KIRKSVILLE     CLOUDY    21  15  78 SW7       30.12F WCI  12

$$
MOZ066>068-077>081-088>096-101>105-100800-
...SOUTHWEST MISSOURI...

CITY           SKY/WX    TMP DP  RH WIND       PRES   REMARKS
SPRINGFIELD    CLOUDY    25  16  68 SW3       30.20F
JOPLIN         CLOUDY    26  20  77 SW8       30.23F WCI  18

$$
MOZ032>034-039>042-045>050-055>058-069>072-100800-
...CENTRAL MISSOURI...

CITY           SKY/WX    TMP DP  RH WIND       PRES   REMARKS
COLUMBIA       CLOUDY    20  15  81 S7        30.18F WCI  11
JEFFERSON CITY CLOUDY    24  16  71 E3        30.21F
ROLLA          CLEAR     19  15  84 SW8       30.19F WCI   9
SEDALIA        CLOUDY    23  18  81 S7        30.19F WCI  15
WHITEMAN AFB   CLOUDY    23  15  73 SE3       30.12F
WARRENSBURG    CLOUDY    23  18  80 S5        30.18R WCI  17
OSAGE BEACH    CLOUDY    19  16  88 CALM      30.21F

$$
MOZ051-052-059>065-100800-
...EAST CENTRAL MISSOURI...

CITY           SKY/WX    TMP DP  RH WIND       PRES   REMARKS
ST LOUIS INTL  CLEAR     23  16  74 CALM      30.20F
SPIRIT OF STL  PTCLDY    18  15  88 CALM      30.20F
ST CHARLES     PTCLDY    19  13  77 SW5       30.19F WCI  12

$$
MOZ072>076-082>087-097>100-106>115-100800-
...SOUTH CENTRAL AND SOUTHEAST MISSOURI...

CITY           SKY/WX    TMP DP  RH WIND       PRES   REMARKS
CAPE GIRARDEAU PTCLDY    20  16  84 W3        30.25S
FARMINGTON     CLOUDY    20  16  84 CALM      30.21F
POPLAR BLUFF   CLEAR     23  19  85 NW3       30.26S
WEST PLAINS    CLOUDY    24  16  71 CALM      30.22F

$$



USA.gov is the U.S. government's official web portal to all federal, state and local government web resources and services.